Wind_Speed
15 15 14 14 13 13 13 12 13 13 15 16 14 14 16 18 17 16 16 13 6 4 15 16 19 17 15 12 9 13 10 4 6 5 4 4 3 4 4 5 2 6 4 5 7 7 10 20 7 8 9 15 15 14
16 17 15 14 14 13 13 12 12 13 14 15 15 13 15 18 20 19 11 14 9 7 11 27 30 25 21 21 9 9 9 13 4 4 5 5 6 4 8 4 7 4 3 4 4 2 10 12 13 18 21 15 14 14
16 14 13 13 13 13 13 12 12 13 14 16 15 14 14 18 21 21 19 15 11 3 10 10 10 2 13 14 8 7 4 4 7 6 4 4 4 7 6 5 10 6 1 3 10 12 15 10 16 21 21 22 17 16
16 14 14 13 12 12 12 13 12 13 14 15 15 14 15 18 21 20 17 17 6 6 4 7 17 18 17 7 12 13 13 12 9 5 3 3 5 7 10 12 9 8 4 8 6 14 12 14 19 18 21 21 20 17
16 15 14 13 13 13 13 12 11 13 14 15 15 14 15 17 22 22 19 7 4 2 5 9 23 17 5 4 6 7 9 7 5 3 3 7 7 6 7 8 6 4 1 3 3 8 5 14 16 16 18 20 19 15
16 15 13 13 13 12 13 12 11 13 15 15 14 14 15 17 20 15 2 7 6 3 2 4 13 16 5 4 9 7 11 7 4 2 4 4 13 3 4 7 3 5 7 6 3 5 8 11 12 12 17 19 19 13
17 15 14 13 12 12 12 11 11 13 14 15 13 13 16 19 17 4 4 7 10 4 2 4 5 1 12 8 3 2 8 2 3 3 4 7 9 1 3 7 13 11 6 4 5 6 10 9 9 13 16 19 15 17
18 16 15 13 12 12 12 11 12 13 14 14 14 16 19 19 9 5 3 7 2 2 4 3 4 4 6 5 2 3 3 1 3 3 5 6 7 3 3 10 11 10 8 7 3 1 1 5 10 12 19 17 9 14
18 17 15 14 12 12 11 11 12 13 13 13 15 18 8 2 2 3 7 3 3 4 3 3 5 4 8 8 6 2 2 3 4 4 6 4 3 4 9 10 10 12 12 11 6 6 2 5 8 11 13 14 13 8
19 17 16 14 12 12 11 10 11 13 12 13 12 2 1 3 3 5 1 1 1 2 3 4 7 6 5 7 4 5 1 3 2 1 3 3 5 4 5 12 14 14 12 13 14 6 2 6 5 8 10 12 13 8
19 18 16 14 13 12 10 10 10 9 10 3 1 2 2 3 4 3 2 2 1 3 3 6 7 7 5 5 6 3 3 3 4 1 3 1 2 9 15 15 14 16 16 15 14 5 5 3 5 7 7 10 14 17
21 20 17 15 13 11 11 11 9 6 5 6 4 2 1 3 2 3 3 2 4 3 3 5 5 6 5 3 2 3 3 4 3 6 3 2 2 12 15 18 16 15 16 15 3 4 6 6 11 12 11 8 13 16
22 20 17 15 13 12 12 12 10 12 15 3 4 1 2 3 3 3 3 3 3 2 3 5 4 3 2 2 3 3 2 3 7 2 2 2 4 8 10 12 8 13 17 16 18 22 19 15 12 10 12 9 6 13
22 20 18 16 13 12 11 10 11 9 7 4 4 4 5 5 5 5 7 5 2 3 6 6 5 2 2 2 2 3 3 4 3 3 3 4 12 6 7 7 6 6 11 12 11 13 13 11 9 8 8 6 5 7
23 20 18 15 14 11 9 4 9 10 4 4 4 4 7 7 6 6 5 6 6 5 6 6 6 2 3 3 3 3 2 3 4 2 5 6 6 9 6 7 7 7 7 7 10 9 7 5 2 3 1 1 2 3
22 18 18 17 14 10 8 14 8 6 3 3 6 6 7 6 4 5 6 7 7 6 5 3 3 3 3 3 3 4 3 3 3 3 6 1 9 5 10 6 5 5 8 9 10 10 10 6 5 5 4 4 4 2
26 9 13 15 15 11 17 13 5 5 4 5 4 6 9 8 6 7 6 8 11 6 6 3 3 4 3 3 3 4 4 5 1 1 9 8 7 7 8 5 1 6 4 7 7 6 5 7 8 9 8 9 6 8
14 17 15 17 19 15 11 6 5 5 7 7 7 7 8 7 7 7 8 8 7 7 7 8 5 7 6 9 9 6 5 2 6 6 5 5 6 8 9 8 7 7 9 11 11 11 10 11 10 10 12 11 11 10
21 19 21 22 23 9 9 5 6 4 6 6 6 7 8 7 7 11 7 11 11 9 1 3 5 6 8 7 9 9 6 8 8 8 6 7 7 8 10 10 8 10 12 9 11 11 13 13 13 12 14 14 13 15
21 21 21 28 24 9 5 4 6 4 4 4 5 7 7 7 7 7 7 6 6 2 5 5 9 9 8 9 10 10 10 3 3 9 8 9 10 12 13 11 5 6 17 11 11 13 11 11 13 16 15 14 13 13
22 16 25 28 9 6 2 3 5 3 4 4 3 4 4 6 6 6 6 5 4 3 5 7 8 8 14 13 14 15 14 15 9 8 8 6 10 12 12 13 14 12 10 9 8 7 8 7 9 11 11 11 12 14
14 28 8 12 5 5 4 8 4 2 3 4 5 5 5 4 5 4 3 4 4 7 7 6 7 7 6 7 9 11 14 14 14 14 14 12 6 5 8 9 8 6 7 8 6 4 5 7 7 9 12 12 14 15
24 16 7 5 4 6 4 7 5 4 4 3 3 3 3 2 3 3 3 4 4 7 8 6 6 7 8 11 11 9 11 10 10 10 8 10 10 9 10 7 3 2 3 5 6 6 5 7 9 10 12 12 12 13
22 11 7 7 8 5 5 5 4 5 5 8 3 3 3 3 4 3 5 5 5 6 5 6 7 5 5 5 3 4 3 4 8 8 7 6 7 8 7 6 3 3 5 7 7 6 7 8 9 10 10 11 11 11
7 6 5 6 6 7 7 6 9 8 8 7 8 5 3 4 3 4 6 3 5 5 5 5 5 4 4 5 4 3 4 4 6 3 4 2 4 7 6 4 2 3 3 5 5 6 7 7 8 9 10 10 11 13
7 8 11 13 7 7 8 9 9 10 8 6 5 4 4 3 3 6 3 2 4 5 4 3 3 4 4 7 5 4 5 2 2 6 6 1 2 6 5 4 1 3 3 3 4 5 6 7 8 9 10 10 10 12
9 7 7 6 7 7 5 7 6 10 9 7 4 4 4 5 6 4 2 4 4 7 12 10 9 7 5 4 4 5 5 4 4 4 3 3 2 2 3 3 3 2 2 2 3 4 6 7 8 8 8 9 9 11
6 9 13 13 8 9 9 8 9 8 8 6 5 9 5 6 4 2 2 7 10 10 8 6 4 4 3 4 4 5 4 5 5 5 4 3 2 2 1 1 1 1 1 0 2 4 5 6 7 7 7 8 9 11
7 9 8 9 10 7 9 8 7 6 6 7 10 8 4 3 1 2 5 10 11 11 10 7 6 5 4 3 5 7 6 8 9 7 6 4 5 6 4 3 2 1 1 2 3 4 5 5 5 5 6 6 6 8
11 10 7 11 7 10 8 6 6 6 6 7 6 6 3 2 4 6 8 11 12 11 13 12 12 14 10 10 8 7 9 12 11 7 3 2 3 9 6 5 3 2 1 1 1 1 3 5 6 6 7 8 9 10
9 9 7 7 7 8 3 3 2 1 0 1 1 2 5 2 4 11 16 18 15 13 12 11 12 15 14 13 11 8 7 13 12 11 9 7 5 5 6 5 4 3 2 2 1 1 2 3 5 7 8 10 11 12
8 12 9 9 6 5 5 6 5 5 5 6 5 4 3 3 5 4 14 21 17 16 18 17 15 14 18 17 14 14 9 9 13 11 9 9 8 8 7 6 5 4 4 4 3 3 3 4 4 6 7 8 9 10
6 8 7 6 6 8 6 6 6 8 9 11 10 9 9 7 7 3 7 19 21 19 18 19 19 17 16 19 17 14 10 9 9 9 10 10 10 9 7 6 6 6 6 6 5 5 5 6 6 6 6 6 7 7
Wind_Direction
281 285 290 285 293 308 319 317 327 332 338 343 338 333 335 340 338 334 311 320 296 272 293 286 319 318 311 316 326 325 323 332 319 320 299 342 302 0 322 352 1 188 214 188 210 235 243 360 22 11 340 338 338 333
276 281 281 284 285 292 307 310 318 326 331 335 332 326 327 334 334 336 299 316 286 253 281 297 292 281 277 272 305 310 293 320 336 339 356 324 313 316 335 311 24 63 2 314 323 24 359 7 360 343 355 350 340 325
279 276 279 287 279 282 295 303 309 319 325 330 330 321 321 327 332 332 309 311 299 277 289 287 310 339 263 268 279 288 322 300 334 344 331 305 310 344 345 343 358 21 4 298 318 13 4 21 345 355 346 328 344 334
270 270 275 279 284 278 288 299 303 314 321 325 324 319 318 324 330 333 313 310 271 289 286 297 317 309 321 290 256 257 293 297 304 325 306 289 307 316 316 310 314 317 349 335 314 7 345 359 352 341 327 325 344 346
263 265 271 274 279 275 278 292 297 309 317 320 321 314 316 323 326 326 318 315 272 290 324 304 301 278 295 335 308 293 279 278 289 305 276 292 297 333 309 304 297 22 2 6 326 345 345 322 326 327 327 327 336 344
255 261 264 271 278 271 273 286 293 307 315 318 317 311 313 322 336 333 321 52 46 12 295 304 318 329 280 289 296 330 305 277 287 274 286 273 284 272 305 301 93 259 218 206 295 309 339 337 322 336 326 330 324 14
249 254 258 268 277 266 272 281 288 306 314 316 314 312 314 320 320 273 305 323 309 307 270 295 299 346 350 299 322 328 299 269 257 271 245 265 275 301 266 286 303 296 326 320 244 353 336 351 334 347 336 321 330 30
246 250 251 261 267 264 273 279 290 307 312 308 308 310 311 312 299 271 258 309 321 270 257 282 285 347 303 319 335 196 267 292 240 245 269 277 293 280 257 278 299 308 315 327 77 85 339 308 356 349 333 345 3 22
242 244 247 253 258 261 268 274 292 306 309 309 309 316 315 331 352 309 312 334 274 269 302 283 303 334 332 330 317 169 253 257 243 233 254 265 249 226 246 278 284 304 321 315 304 174 346 328 334 354 342 356 354 44
237 238 241 246 251 258 262 271 295 305 305 309 303 303 240 311 283 320 312 291 264 245 232 266 300 316 341 335 328 325 256 280 274 233 285 244 275 345 304 355 17 1 337 321 312 258 174 291 15 349 360 7 355 25
233 234 236 239 247 253 255 269 295 309 311 257 202 259 271 273 271 240 290 276 204 248 218 249 272 311 309 332 337 305 320 276 294 311 293 217 23 356 45 20 0 354 336 303 288 263 184 273 93 80 21 23 10 14
230 230 230 234 243 247 250 267 283 262 255 305 290 274 234 252 254 268 255 240 242 265 253 302 351 328 326 335 317 296 293 304 293 329 320 11 266 76 59 41 21 358 351 357 7 193 190 171 113 103 88 34 7 51
224 224 226 229 236 242 254 273 259 253 280 223 216 248 258 174 255 234 222 235 249 261 272 310 357 303 329 312 268 268 283 266 295 296 270 62 256 97 64 45 48 354 52 48 45 46 48 63 91 100 106 108 24 38
217 219 219 223 231 240 265 277 269 219 186 199 182 214 230 188 237 222 248 304 324 337 317 318 329 355 298 278 280 269 288 323 278 311 36 216 264 125 113 80 339 48 38 61 60 60 62 65 72 87 110 126 92 67
213 214 215 220 227 237 238 262 188 181 246 220 211 241 218 237 247 273 304 313 310 310 310 310 313 307 288 276 266 282 268 264 263 16 10 340 41 52 40 74 61 19 28 44 63 88 75 47 163 119 6 206 24 16
205 205 210 213 221 223 221 179 184 239 242 240 235 238 268 268 264 288 281 275 282 292 301 335 312 285 259 256 245 237 252 265 355 2 228 114 346 109 226 73 47 33 13 21 18 22 23 9 1 340 304 268 245 287
193 190 201 209 205 199 176 168 206 235 236 232 230 240 266 274 258 255 249 257 269 282 278 259 255 244 271 244 244 231 295 359 230 46 266 2 342 343 330 325 28 315 345 354 341 342 336 328 337 347 344 358 324 342
182 179 180 179 170 161 176 206 234 235 243 242 257 257 251 253 259 262 266 277 282 278 274 258 257 243 259 275 286 296 276 283 297 304 323 338 345 347 336 328 334 335 340 315 311 314 329 334 340 334 320 326 329 345
177 179 186 180 171 162 169 211 232 260 243 249 255 260 263 268 270 271 270 271 270 275 192 244 234 245 258 259 279 290 314 329 334 317 317 304 301 298 294 293 289 292 292 311 326 325 330 331 331 335 346 345 339 334
175 184 186 177 172 191 193 205 203 251 263 245 250 258 260 264 269 272 269 276 270 253 211 232 247 261 269 261 272 285 292 277 232 287 299 297 314 328 322 323 344 352 297 327 334 335 348 334 336 339 342 336 328 326
163 166 173 170 196 237 233 203 213 243 259 252 263 267 268 278 273 270 271 269 264 220 244 248 256 269 279 285 286 285 283 286 281 277 278 304 323 320 309 310 318 324 325 335 335 335 346 340 334 333 337 335 328 321
150 163 128 169 182 220 236 222 241 323 236 238 251 241 253 260 270 262 253 240 251 248 252 265 272 283 282 284 297 299 298 300 294 292 289 293 284 289 301 317 321 332 358 349 357 342 342 336 339 330 317 315 317 312
139 153 150 138 179 201 244 203 209 228 235 244 200 209 226 228 226 170 244 223 237 232 246 245 253 265 266 270 275 291 303 301 294 298 317 312 318 324 322 333 27 352 12 355 350 336 4 355 334 331 321 318 317 314
128 159 174 184 197 198 177 193 207 225 224 223 228 224 253 227 158 237 244 253 225 187 209 229 242 267 282 278 269 281 312 311 304 300 305 326 311 321 333 334 357 42 25 354 4 10 353 331 330 328 328 324 322 324
135 177 194 187 191 182 191 198 209 217 221 216 225 243 210 165 201 244 245 225 175 192 208 221 229 238 262 272 278 250 240 268 292 296 313 291 315 307 322 321 125 95 24 340 347 333 329 334 342 344 341 340 340 343
173 175 194 180 176 189 191 191 195 204 203 215 234 207 191 177 227 241 240 190 156 186 174 183 225 250 245 235 257 249 197 216 289 285 281 232 330 302 300 306 303 133 47 359 339 335 332 342 345 351 347 343 351 347
180 177 187 205 185 188 193 193 199 198 205 204 206 217 171 213 231 232 164 163 176 160 178 194 217 245 268 270 231 204 207 237 251 282 299 302 289 273 294 292 330 59 354 343 342 338 337 340 344 344 345 348 348 352
194 170 173 187 190 190 210 197 198 204 210 209 203 192 206 211 230 136 133 147 143 158 166 175 198 231 253 236 218 191 198 239 245 241 242 232 213 220 213 199 269 222 159 297 3 359 348 342 340 338 343 340 355 2
181 161 152 179 189 197 206 201 205 202 219 221 217 211 212 234 70 127 155 164 168 169 165 180 210 210 217 225 215 221 218 207 212 211 225 238 183 200 190 179 169 158 118 356 341 358 11 22 5 351 342 350 5 28
168 160 167 169 190 206 206 194 212 212 242 264 252 220 225 178 194 190 184 188 194 198 204 203 201 195 206 206 211 213 219 210 216 238 239 238 149 158 187 195 208 217 247 309 325 2 20 31 35 40 42 43 48 51
154 170 165 176 204 200 182 130 110 93 273 253 327 293 265 357 276 235 219 215 210 206 203 211 211 208 205 206 208 206 215 214 214 218 226 229 225 215 196 189 201 194 177 187 177 143 104 77 72 67 63 63 60 61
157 185 177 189 185 130 141 189 200 216 208 210 229 202 227 232 247 223 205 205 202 210 217 220 220 224 218 216 213 213 221 202 192 196 204 199 201 195 189 187 188 171 171 168 158 149 148 132 111 97 84 74 70 69
142 158 178 196 174 174 176 192 213 235 228 230 224 216 221 233 251 201 208 213 211 209 211 211 212 215 211 207 200 192 186 177 177 188 177 180 186 183 178 180 175 169 164 161 153 150 151 146 135 120 107 96 88 80
Height
878 878 878 877 877 875 874 873 871 869 867 864 862 860 858 856 853 852 847 845 844 837 824 818 816 815 810 806 805 800 791 789 778 772 766 756 743 736 731 741 737 733 734 728 728 721 714 718 695 708 710 695 689 681
874 874 874 874 874 873 872 871 870 868 866 863 860 858 857 855 852 849 845 843 840 838 825 819 814 812 810 806 803 801 799 794 794 790 783 770 762 745 740 742 742 743 755 751 744 729 747 742 744 732 723 705 698 691
870 871 871 871 870 870 869 868 867 866 864 862 859 857 856 854 851 848 843 840 838 833 820 809 803 804 804 800 801 802 799 804 796 792 793 781 769 763 753 747 751 742 752 751 747 750 743 746 741 735 729 722 702 692
866 867 868 868 867 867 867 866 865 864 861 860 858 856 854 852 849 845 841 838 837 834 825 806 804 801 798 797 797 796 795 795 794 793 793 787 779 767 761 750 748 742 742 751 743 744 740 742 745 745 736 721 706 698
862 863 864 863 864 864 864 863 862 861 859 857 855 854 852 850 847 842 838 835 835 839 826 812 805 798 795 796 796 795 794 794 793 795 791 785 773 772 759 750 745 757 761 756 757 755 760 754 753 749 739 725 717 707
858 859 860 860 860 860 861 860 859 859 857 854 853 852 850 848 845 842 838 838 836 835 833 816 801 797 793 793 792 792 794 793 792 793 789 781 772 777 770 757 759 754 751 754 753 751 752 752 752 749 743 733 720 706
853 855 855 856 857 858 858 857 857 855 854 852 850 849 847 845 844 842 840 839 837 836 834 819 801 793 796 791 793 794 793 792 792 791 786 779 771 772 773 763 749 745 741 741 745 748 750 753 751 746 744 734 721 711
848 850 851 852 853 855 856 855 855 853 851 850 848 846 844 841 839 839 838 837 836 836 833 824 804 799 795 789 790 793 790 791 789 788 779 775 769 767 768 752 745 741 740 740 745 748 750 753 749 750 747 737 723 721
843 845 847 849 850 851 852 853 852 851 849 848 846 843 841 840 839 838 836 836 836 838 830 816 808 802 793 789 784 787 786 787 777 779 775 775 766 767 754 747 744 741 740 738 739 744 745 747 749 753 749 744 735 729
838 841 843 845 846 847 848 849 849 849 848 846 845 843 840 840 839 839 836 836 835 834 828 819 803 800 796 793 788 785 783 781 778 770 767 765 760 754 754 751 749 748 745 744 741 739 742 746 748 756 752 749 742 735
833 836 839 840 843 844 845 846 847 847 846 845 844 843 842 840 839 836 832 831 826 825 817 808 801 798 793 796 794 790 786 778 774 781 767 761 768 770 761 759 758 755 750 744 738 736 740 743 748 756 756 754 747 743
828 831 834 837 840 841 842 842 844 846 846 844 844 842 841 840 836 835 825 820 816 808 801 797 796 795 793 792 795 790 787 779 773 762 766 774 771 765 763 766 766 763 752 739 735 737 740 743 750 755 760 760 755 752
822 827 830 833 835 837 839 839 839 841 844 842 843 842 841 836 836 827 818 811 808 798 795 793 797 796 794 795 795 792 788 781 767 770 767 770 769 763 763 764 766 762 754 754 750 749 748 750 753 756 759 762 760 756
817 822 825 829 831 833 835 834 834 837 839 838 837 835 830 823 819 805 801 795 795 794 794 792 793 797 796 797 792 791 779 775 775 770 771 779 776 766 765 768 763 763 761 759 760 760 760 760 761 761 761 761 760 758
813 817 821 825 828 829 831 831 832 836 834 829 824 821 810 804 799 796 795 795 794 793 793 792 791 792 794 795 790 785 784 782 769 770 775 765 761 762 763 763 764 764 762 760 760 762 763 763 762 761 760 759 759 758
809 814 816 820 823 826 827 831 834 834 828 823 814 807 801 797 798 798 797 797 795 793 792 794 796 798 795 789 786 784 776 769 766 776 774 767 765 763 769 762 764 765 765 764 763 763 763 763 761 760 758 757 757 757
804 805 810 815 819 823 825 829 833 829 820 811 803 801 801 797 796 796 795 794 793 795 797 799 803 796 787 786 781 770 769 768 775 775 774 762 762 762 761 762 765 765 764 764 764 763 762 762 760 760 759 758 757 756
796 801 807 811 816 821 825 826 824 816 809 801 800 798 797 795 794 793 792 790 790 790 791 794 791 792 790 783 775 769 768 771 769 767 763 763 763 762 762 762 762 763 763 762 761 760 759 758 757 757 756 755 755 755
792 797 803 809 812 816 820 821 818 811 799 796 793 792 791 790 789 787 787 786 786 788 793 792 790 784 779 778 774 771 770 770 769 765 762 760 761 761 761 761 761 761 761 760 759 759 758 757 757 757 757 757 758 757
789 794 799 804 809 812 810 811 811 806 798 792 789 787 786 784 782 781 781 782 784 788 792 786 778 775 777 777 776 773 770 771 777 776 769 763 760 759 759 758 759 760 764 758 758 760 760 760 760 760 760 761 760 759
787 792 799 804 807 806 805 802 802 799 795 790 784 784 783 781 779 779 778 779 781 782 776 771 771 771 771 771 770 769 767 767 764 762 760 760 761 761 761 761 760 760 760 760 761 761 762 763 764 763 762 761 760 759
780 787 795 800 804 803 799 796 795 792 791 785 782 781 780 781 779 778 777 778 774 767 766 766 766 767 768 768 768 768 767 764 762 761 760 759 758 759 759 760 760 760 761 762 762 763 764 764 763 763 762 760 759 757
779 785 790 794 797 798 792 790 791 789 786 781 776 778 777 776 774 775 776 769 763 763 762 762 764 766 767 767 767 767 767 765 763 761 761 761 760 760 759 760 761 762 761 763 763 763 763 764 763 763 761 760 758 755
773 780 783 784 783 784 785 786 785 781 776 775 772 775 771 768 770 772 766 755 752 756 759 761 762 762 763 764 765 765 766 766 766 765 764 764 763 761 761 760 761 762 763 763 764 764 764 764 763 762 760 758 756 754
769 775 775 774 773 776 776 774 773 772 772 770 768 766 761 762 768 762 753 748 751 754 755 757 759 760 763 764 764 764 764 765 764 764 763 763 763 763 762 761 762 762 763 764 764 764 764 763 762 761 759 757 755 752
758 760 760 756 760 762 761 764 765 765 765 767 762 758 754 762 763 755 745 742 746 751 754 756 758 758 759 761 761 762 763 763 763 763 762 762 763 763 762 761 761 762 763 764 764 764 763 762 761 760 758 756 754 752
744 742 744 743 745 749 749 751 752 754 759 760 757 756 756 759 752 741 737 740 743 746 750 752 754 754 754 755 757 759 760 761 762 762 762 762 762 763 762 762 762 763 763 763 763 763 762 761 760 759 758 756 754 752
727 726 734 736 738 741 745 745 747 748 747 744 745 748 747 742 735 732 734 739 742 745 747 750 752 753 754 755 756 757 758 759 760 761 761 761 761 762 762 762 762 762 762 762 762 762 761 760 760 759 758 756 754 752
717 719 727 736 737 738 739 739 738 736 735 735 736 734 734 729 732 734 737 739 741 743 745 748 750 752 753 754 755 756 756 757 758 758 758 757 758 760 761 761 761 761 761 762 762 761 760 760 759 758 757 756 755 753
709 712 720 729 732 729 726 727 729 732 732 731 730 729 730 731 733 734 735 737 738 739 740 743 744 747 749 750 751 753 753 754 755 755 755 754 755 757 758 760 761 761 761 761 761 761 761 760 760 759 758 757 756 755
702 707 712 717 721 720 722 727 732 733 734 735 735 734 729 731 731 730 730 731 732 735 737 738 740 741 743 744 746 747 749 750 751 752 753 754 755 756 756 758 758 759 759 760 760 760 761 761 761 761 760 760 759 758
697 701 705 710 713 721 724 727 728 730 729 732 730 733 733 732 728 720 718 722 725 726 727 730 732 733 736 738 741 743 744 744 746 748 749 751 753 754 754 756 756 757 758 759 760 760 761 761 762 762 763 763 763 762
695 699 703 707 710 717 721 724 723 722 721 720 719 721 721 721 716 712 712 713 714 715 719 721 725 728 731 734 737 739 741 742 744 745 747 749 750 751 753 754 755 756 757 758 759 760 761 762 762 763 764 765 765 765